Location: Le Castellard
(44.1862°N, 6.1301°E)
Time: 11:03:43
(UTC+00:00)

Cosmos 1656 - Pass Details

Date: 18 January 2020
Orbit: 797 x 850 km, 71.1° (Epoch: 19 February)

Event Time Altitude Azimuth Distance (km) Brightness Sun altitude
Exits shadow 04:55:46 55° 266° (W) 956 3.6 -23.0°
Maximum altitude 04:56:25 60° 298° (WNW) 917 3.5 -22.9°
Drops below altitude 10° 05:01:50 10° 19° (NNE) 2,397 6.2 -21.9°
Sets 05:04:18 0° 23° (NNE) 3,338 7.0 -21.5°
